Hugo, OK

6:06 PM CDT on March 27, 2017 (GMT -0500)
Stamper Municipal

Weather History for KHHW - March, 2014

Change the Weather History Date:

Sunday, March 16, 2014

  Actual Average Record
Temperature  
Mean Temperature 51 °F -  
Max Temperature 59 °F 67 °F 80 °F (2013)
Min Temperature 43 °F 42 °F 43 °F (2014)
Degree Days  
Heating Degree Days 14    
Growing Degree Days 1 (Base 50)    
Moisture  
Dew Point 44 °F    
Average Humidity 80    
Maximum Humidity 94    
Minimum Humidity 67    
Precipitation  
Precipitation 0.00 in - - ()
Sea Level Pressure  
Sea Level Pressure 29.86 in    
Wind  
Wind Speed 14 mph (NNW)    
Max Wind Speed 28 mph    
Max Gust Speed 41 mph    
Visibility 10 miles    
Events      
Averages and records for this station are not official NWS values.
T = Trace of Precipitation, MM = Missing Value Source: NWS Daily Summary

Daily Weather History Graph

Daily Weather History Graph

Search for Another Location

Airport or City:

Trip Planner

Search our weather history database for the weather conditions in past years. The results will help you decide how hot, cold, wet, or windy it might be!

Date:

Astronomy

Mar. 16, 2014 Rise Set
Actual Time 7:31 AM CDT 7:30 PM CDT
Civil Twilight 7:06 AM CDT 7:55 PM CDT
Nautical Twilight 6:37 AM CDT 8:24 PM CDT
Astronomical Twilight 6:08 AM CDT 8:54 PM CDT
Moon 7:46 PM CDT (3/16) 7:16 AM CDT (3/16)
Length of Visible Light 12h 49m
Length of Day
11h 59m
Full, 100% of the Moon is Illuminated
Mar 16
Full
Mar 16
Full
Mar 23
Last Quarter
Mar 30
New
Apr 7
First Quarter

Hourly Weather History & Observations

Time (CDT) Temp. Windchill Dew Point Humidity Pressure Visibility Wind Dir Wind Speed Gust Speed Precip Events Conditions
12:15 AM 59.0 °F - 56.7 °F 92% 29.68 in 10.0 mi North 9.2 mph - N/A   Clear
12:35 AM 59.4 °F - 57.2 °F 93% 29.67 in 10.0 mi NNE 6.9 mph - N/A   Scattered Clouds
12:55 AM 59.2 °F - 57.0 °F 93% 29.68 in 10.0 mi North 6.9 mph - N/A   Clear
1:15 AM 58.5 °F - 56.3 °F 93% 29.67 in 10.0 mi ENE 5.8 mph - N/A   Clear
1:35 AM 57.4 °F - 55.4 °F 93% 29.68 in 10.0 mi NNW 4.6 mph - N/A   Clear
1:55 AM 57.2 °F - 55.6 °F 94% 29.69 in 10.0 mi West 10.4 mph - N/A   Scattered Clouds
2:15 AM 57.6 °F - 55.6 °F 93% 29.70 in 10.0 mi West 11.5 mph - N/A   Mostly Cloudy
2:35 AM 57.2 °F - 55.4 °F 94% 29.70 in 10.0 mi West 9.2 mph - N/A   Overcast
2:55 AM 56.5 °F - 54.7 °F 94% 29.70 in 10.0 mi WNW 9.2 mph - N/A   Mostly Cloudy
3:15 AM 57.0 °F - 55.4 °F 94% 29.71 in 10.0 mi WNW 12.7 mph - N/A   Overcast
3:35 AM 57.7 °F - 55.9 °F 94% 29.70 in 10.0 mi WNW 12.7 mph 18.4 mph N/A   Overcast
3:55 AM 58.3 °F - 56.3 °F 93% 29.71 in 10.0 mi NW 12.7 mph - N/A   Overcast
4:15 AM 58.5 °F - 56.3 °F 93% 29.70 in 10.0 mi NW 15.0 mph 18.4 mph N/A   Overcast
4:35 AM 59.0 °F - 56.3 °F 91% 29.70 in 10.0 mi NW 13.8 mph 21.9 mph N/A   Overcast
4:55 AM 58.8 °F - 55.9 °F 90% 29.70 in 10.0 mi NW 12.7 mph 17.3 mph N/A   Overcast
5:15 AM 58.8 °F - 55.9 °F 90% 29.70 in 10.0 mi NW 9.2 mph 16.1 mph N/A   Overcast
5:35 AM 58.6 °F - 55.8 °F 90% 29.70 in 10.0 mi NNW 10.4 mph 18.4 mph N/A   Overcast
5:55 AM 58.5 °F - 55.6 °F 90% 29.71 in 10.0 mi NW 9.2 mph - N/A   Overcast
6:15 AM 58.6 °F - 54.9 °F 87% 29.72 in 10.0 mi NNW 15.0 mph 18.4 mph N/A   Overcast
6:35 AM 58.6 °F - 54.0 °F 84% 29.73 in 10.0 mi NW 12.7 mph 18.4 mph N/A   Overcast
6:55 AM 58.5 °F - 54.1 °F 86% 29.73 in 10.0 mi NW 9.2 mph - N/A   Overcast
7:15 AM 58.5 °F - 54.0 °F 85% 29.74 in 10.0 mi NW 16.1 mph 20.7 mph N/A   Overcast
7:35 AM 55.4 °F - 51.3 °F 86% 29.76 in 10.0 mi NW 15.0 mph 23.0 mph N/A   Overcast
7:55 AM 54.7 °F - 50.5 °F 86% 29.77 in 10.0 mi NW 20.7 mph 26.5 mph N/A   Overcast
8:15 AM 54.0 °F - 49.6 °F 85% 29.79 in 10.0 mi NW 17.3 mph 26.5 mph N/A   Overcast
8:35 AM 53.6 °F - 49.3 °F 85% 29.80 in 10.0 mi NW 15.0 mph 24.2 mph N/A   Overcast
8:55 AM 53.2 °F - 49.1 °F 86% 29.82 in 10.0 mi NW 17.3 mph 27.6 mph N/A   Overcast
9:15 AM 53.1 °F - 49.1 °F 86% 29.82 in 10.0 mi NW 17.3 mph 24.2 mph N/A   Overcast
9:35 AM 52.7 °F - 47.7 °F 83% 29.83 in 10.0 mi NW 20.7 mph 31.1 mph N/A   Overcast
9:55 AM 51.3 °F - 46.2 °F 83% 29.85 in 10.0 mi NW 23.0 mph 32.2 mph N/A   Overcast
10:15 AM 49.5 °F - 44.6 °F 83% 29.87 in 10.0 mi NW 23.0 mph 33.4 mph N/A   Overcast
10:35 AM 50.0 °F - 43.9 °F 79% 29.88 in 10.0 mi NNW 15.0 mph 29.9 mph N/A   Overcast
10:55 AM 48.6 °F - 43.2 °F 82% 29.89 in 10.0 mi NNW 20.7 mph 33.4 mph N/A   Overcast
11:15 AM 47.7 °F - 41.0 °F 78% 29.90 in 10.0 mi NNW 27.6 mph 35.7 mph N/A   Overcast
11:35 AM 47.3 °F - 40.3 °F 77% 29.90 in 10.0 mi NNW 24.2 mph 36.8 mph N/A   Overcast
11:55 AM 46.8 °F - 39.9 °F 77% 29.90 in 10.0 mi NNW 21.9 mph 34.5 mph N/A   Overcast
12:15 PM 46.4 °F 38.3 °F 39.2 °F 76% 29.91 in 10.0 mi NNW 23.0 mph 36.8 mph N/A   Overcast
12:35 PM 45.9 °F 37.2 °F 38.5 °F 75% 29.92 in 10.0 mi North 25.3 mph 41.4 mph N/A   Overcast
12:55 PM 45.7 °F 36.7 °F 38.3 °F 75% 29.93 in 10.0 mi NNW 26.5 mph 33.4 mph N/A   Overcast
1:15 PM 45.7 °F 37.1 °F 38.3 °F 75% 29.95 in 10.0 mi NNW 24.2 mph 35.7 mph N/A   Overcast
1:35 PM 45.7 °F 37.4 °F 38.1 °F 75% 29.97 in 10.0 mi NNW 23.0 mph 29.9 mph N/A   Overcast
1:55 PM 44.8 °F 36.6 °F 36.7 °F 73% 29.97 in 10.0 mi North 20.7 mph 34.5 mph N/A   Overcast
2:15 PM 45.0 °F 36.9 °F 36.5 °F 72% 29.95 in 10.0 mi North 20.7 mph 32.2 mph N/A   Overcast
2:35 PM 45.1 °F 36.2 °F 36.7 °F 72% 29.93 in 10.0 mi NNW 25.3 mph 31.1 mph N/A   Overcast
2:55 PM 45.1 °F 36.4 °F 35.8 °F 70% 29.93 in 10.0 mi North 24.2 mph 35.7 mph N/A   Overcast
3:15 PM 45.3 °F 37.3 °F 36.1 °F 70% 29.93 in 10.0 mi North 20.7 mph 35.7 mph N/A   Overcast
3:35 PM 44.8 °F 37.4 °F 36.3 °F 72% 29.94 in 10.0 mi North 17.3 mph 27.6 mph N/A   Overcast
3:55 PM 45.1 °F 36.0 °F 35.6 °F 69% 29.94 in 10.0 mi North 26.5 mph 39.1 mph N/A   Overcast
4:15 PM 45.5 °F 37.6 °F 35.2 °F 67% 29.94 in 10.0 mi North 20.7 mph 31.1 mph N/A   Overcast
4:35 PM 45.5 °F 38.3 °F 35.8 °F 69% 29.94 in 10.0 mi North 17.3 mph 29.9 mph N/A   Overcast
4:55 PM 45.5 °F 38.1 °F 35.6 °F 68% 29.94 in 10.0 mi North 18.4 mph 28.8 mph N/A   Overcast
5:15 PM 44.8 °F 36.6 °F 35.4 °F 70% 29.94 in 10.0 mi North 20.7 mph 29.9 mph N/A   Overcast
5:35 PM 44.2 °F 37.0 °F 36.0 °F 73% 29.95 in 10.0 mi North 16.1 mph 24.2 mph N/A   Overcast
5:55 PM 44.1 °F 37.1 °F 35.8 °F 73% 29.95 in 10.0 mi North 15.0 mph 24.2 mph N/A   Overcast
6:15 PM 43.7 °F 36.0 °F 35.6 °F 73% 29.95 in 10.0 mi North 17.3 mph 29.9 mph N/A   Overcast
6:35 PM 43.7 °F 36.9 °F 35.6 °F 73% 29.96 in 10.0 mi North 13.8 mph 28.8 mph N/A   Overcast
6:55 PM 44.1 °F 36.8 °F 35.6 °F 72% 29.96 in 10.0 mi North 16.1 mph 23.0 mph N/A   Overcast
7:15 PM 44.1 °F 37.4 °F 35.1 °F 71% 29.98 in 10.0 mi North 13.8 mph 24.2 mph N/A   Overcast
7:35 PM 44.2 °F 36.7 °F 35.6 °F 72% 29.98 in 10.0 mi North 17.3 mph 24.2 mph N/A   Overcast
7:55 PM 44.2 °F 35.9 °F 36.0 °F 73% 29.99 in 10.0 mi North 20.7 mph 29.9 mph N/A   Overcast
8:15 PM 44.2 °F 36.7 °F 36.1 °F 73% 29.99 in 10.0 mi North 17.3 mph 23.0 mph N/A   Overcast
8:35 PM 44.1 °F 37.4 °F 36.5 °F 75% 30.00 in 10.0 mi NNW 13.8 mph 25.3 mph N/A   Overcast
8:55 PM 43.9 °F 35.7 °F 36.0 °F 74% 30.00 in 10.0 mi North 19.6 mph 29.9 mph N/A   Overcast
9:15 PM 43.7 °F 35.7 °F 36.1 °F 75% 30.02 in 10.0 mi North 18.4 mph 24.2 mph N/A   Overcast
9:35 PM 43.7 °F 35.7 °F 35.6 °F 73% 30.02 in 10.0 mi North 18.4 mph 32.2 mph N/A   Overcast
9:55 PM 43.7 °F 35.7 °F 35.6 °F 73% 30.02 in 10.0 mi North 18.4 mph 28.8 mph N/A   Overcast
10:15 PM 43.9 °F 38.3 °F 35.8 °F 73% 30.03 in 10.0 mi North 10.4 mph 20.7 mph N/A   Overcast
10:35 PM 43.9 °F 37.5 °F 35.8 °F 73% 30.03 in 10.0 mi North 12.7 mph 20.7 mph N/A   Overcast
10:55 PM 43.7 °F 37.3 °F 35.2 °F 72% 30.03 in 10.0 mi North 12.7 mph 23.0 mph N/A   Overcast
11:15 PM 43.7 °F 36.3 °F 35.2 °F 72% 30.03 in 10.0 mi North 16.1 mph 23.0 mph N/A   Overcast
11:35 PM 43.7 °F 36.3 °F 35.6 °F 73% 30.03 in 10.0 mi North 16.1 mph 20.7 mph N/A   Overcast
11:55 PM 43.7 °F 36.6 °F 35.6 °F 73% 30.02 in 10.0 mi North 15.0 mph 24.2 mph N/A   Overcast